Precipitable_Water
0.87 0.86 0.88 0.90 0.85 0.81 0.83 0.88 0.89 0.90 0.90 0.91 0.89 0.92 0.95 0.97 1.00 1.00 1.00 1.00 1.00 1.00 0.99 1.03 1.08 1.10 1.10 1.12 1.13 1.15 1.17 1.19 1.25 1.27 1.29 1.28 1.30 1.30 1.31 1.32 1.31 1.30 1.26 1.23 1.23 1.22 1.21 1.21 1.21 1.26 1.41 1.37 1.32 1.36 1.34 1.40 1.51 1.47 1.45 1.47 1.46 1.55 1.51 1.37 1.30 1.03 1.11 1.25 1.27 1.27 1.31 1.41 1.47 1.61 1.62 1.69 1.80 1.86 1.76 1.77 1.81 1.74 1.71 1.73 1.78
0.87 0.87 0.88 0.88 0.83 0.83 0.85 0.87 0.88 0.89 0.88 0.89 0.89 0.92 0.93 0.95 0.99 1.01 0.98 0.98 1.00 0.98 0.98 1.03 1.08 1.10 1.10 1.09 1.12 1.15 1.16 1.20 1.23 1.26 1.26 1.27 1.27 1.30 1.32 1.33 1.32 1.29 1.27 1.23 1.24 1.24 1.22 1.19 1.15 1.15 1.18 1.30 1.31 1.27 1.40 1.39 1.36 1.43 1.48 1.46 1.45 1.43 1.57 1.38 1.18 1.11 1.02 1.19 1.27 1.34 1.27 1.35 1.41 1.60 1.61 1.67 1.69 1.71 1.79 1.76 1.77 1.75 1.69 1.76 1.79
0.95 0.89 0.87 0.84 0.82 0.84 0.86 0.87 0.88 0.88 0.87 0.87 0.89 0.90 0.93 0.94 0.95 0.96 0.97 0.97 0.99 0.99 1.00 1.04 1.05 1.08 1.09 1.11 1.12 1.13 1.14 1.15 1.20 1.23 1.24 1.25 1.25 1.28 1.32 1.34 1.32 1.27 1.24 1.23 1.23 1.23 1.18 1.15 1.15 1.18 1.19 1.16 1.25 1.35 1.38 1.33 1.32 1.32 1.41 1.48 1.42 1.43 1.48 1.44 1.26 1.17 1.20 1.11 1.26 1.28 1.29 1.34 1.35 1.45 1.64 1.69 1.73 1.75 1.72 1.79 1.78 1.74 1.74 1.76 1.79
0.89 0.91 0.86 0.81 0.81 0.83 0.85 0.87 0.87 0.86 0.84 0.87 0.87 0.90 0.90 0.93 0.94 0.91 0.95 0.98 0.99 1.03 1.03 1.05 1.07 1.05 1.04 1.08 1.12 1.14 1.11 1.11 1.13 1.17 1.20 1.22 1.23 1.24 1.26 1.29 1.30 1.26 1.24 1.23 1.23 1.20 1.16 1.13 1.14 1.17 1.19 1.20 1.19 1.25 1.36 1.37 1.31 1.26 1.30 1.37 1.42 1.48 1.42 1.40 1.40 1.34 1.35 1.12 1.24 1.26 1.29 1.28 1.37 1.50 1.66 1.71 1.69 1.70 1.69 1.76 1.88 1.82 1.71 1.64 1.66
0.85 0.85 0.83 0.78 0.81 0.84 0.86 0.88 0.87 0.85 0.84 0.85 0.86 0.87 0.89 0.89 0.88 0.88 0.92 0.95 0.99 1.02 1.03 1.05 1.06 1.06 1.04 1.06 1.10 1.13 1.12 1.11 1.10 1.13 1.17 1.22 1.22 1.22 1.21 1.21 1.22 1.22 1.21 1.22 1.22 1.23 1.22 1.19 1.18 1.18 1.17 1.16 1.20 1.23 1.32 1.44 1.37 1.27 1.26 1.33 1.40 1.52 1.51 1.40 1.46 1.48 1.39 1.18 1.17 1.32 1.37 1.37 1.41 1.52 1.63 1.58 1.65 1.70 1.73 1.68 1.79 1.80 1.67 1.60 1.67
0.87 0.86 0.81 0.78 0.81 0.83 0.87 0.87 0.86 0.84 0.85 0.86 0.87 0.88 0.88 0.89 0.89 0.89 0.87 0.84 0.86 0.94 0.99 1.03 1.07 1.05 1.05 1.06 1.09 1.12 1.13 1.12 1.11 1.12 1.15 1.18 1.20 1.19 1.18 1.18 1.19 1.18 1.18 1.19 1.21 1.24 1.25 1.25 1.26 1.24 1.21 1.18 1.19 1.31 1.35 1.35 1.37 1.29 1.25 1.27 1.36 1.47 1.52 1.48 1.38 1.41 1.36 1.21 1.20 1.24 1.34 1.31 1.33 1.42 1.57 1.57 1.56 1.59 1.63 1.65 1.69 1.73 1.71 1.62 1.62
0.87 0.80 0.77 0.75 0.79 0.84 0.86 0.86 0.86 0.86 0.88 0.90 0.91 0.92 0.92 0.93 0.91 0.88 0.86 0.83 0.82 0.88 0.98 1.02 1.09 1.11 1.09 1.08 1.08 1.10 1.11 1.11 1.11 1.12 1.15 1.15 1.14 1.12 1.13 1.14 1.13 1.14 1.16 1.19 1.21 1.25 1.27 1.30 1.32 1.33 1.30 1.28 1.26 1.27 1.32 1.34 1.39 1.32 1.29 1.28 1.31 1.44 1.51 1.43 1.38 1.32 1.39 1.24 1.25 1.28 1.28 1.34 1.36 1.34 1.50 1.56 1.58 1.58 1.55 1.54 1.51 1.61 1.69 1.62 1.53
0.86 0.80 0.76 0.76 0.79 0.83 0.86 0.86 0.87 0.89 0.91 0.93 0.95 0.97 0.97 0.97 0.96 0.96 0.93 0.87 0.85 0.87 0.93 0.98 1.01 1.02 1.04 1.03 1.05 1.09 1.12 1.13 1.13 1.15 1.15 1.14 1.11 1.10 1.11 1.09 1.08 1.10 1.13 1.17 1.20 1.22 1.26 1.30 1.32 1.36 1.35 1.32 1.30 1.31 1.37 1.35 1.42 1.33 1.35 1.39 1.33 1.43 1.54 1.45 1.30 1.27 1.29 1.29 1.23 1.25 1.29 1.27 1.35 1.40 1.51 1.53 1.45 1.50 1.56 1.52 1.42 1.47 1.60 1.71 1.57
0.82 0.77 0.76 0.77 0.80 0.84 0.85 0.86 0.89 0.91 0.92 0.95 0.99 1.01 1.01 1.00 0.99 0.99 0.98 0.95 0.92 0.92 0.94 0.95 0.95 0.96 1.02 1.06 1.06 1.10 1.12 1.13 1.14 1.12 1.09 1.07 1.08 1.06 1.07 1.06 1.06 1.07 1.11 1.15 1.18 1.21 1.26 1.30 1.32 1.37 1.41 1.39 1.38 1.35 1.33 1.42 1.43 1.31 1.39 1.41 1.43 1.53 1.45 1.43 1.36 1.29 1.36 1.32 1.26 1.30 1.30 1.28 1.28 1.33 1.34 1.33 1.32 1.34 1.47 1.58 1.49 1.48 1.56 1.73 1.67
0.80 0.76 0.76 0.79 0.83 0.85 0.86 0.88 0.89 0.92 0.94 0.97 1.02 1.04 1.02 0.98 0.95 0.92 0.92 0.95 0.97 0.96 0.95 0.98 0.98 0.98 1.00 1.06 1.09 1.10 1.11 1.14 1.13 1.07 1.02 1.02 1.01 1.02 1.05 1.06 1.06 1.08 1.11 1.11 1.12 1.19 1.26 1.30 1.32 1.38 1.42 1.44 1.44 1.43 1.42 1.40 1.41 1.44 1.42 1.41 1.44 1.46 1.53 1.43 1.30 1.25 1.25 1.23 1.26 1.30 1.25 1.21 1.25 1.31 1.34 1.37 1.40 1.44 1.46 1.56 1.49 1.49 1.51 1.55 1.66
0.81 0.78 0.77 0.80 0.83 0.86 0.87 0.89 0.91 0.93 0.97 1.03 1.06 1.04 0.98 0.93 0.90 0.89 0.91 0.95 0.97 0.97 0.97 0.95 0.97 1.00 1.01 1.02 1.03 1.05 1.08 1.13 1.10 1.02 0.97 0.98 0.99 1.00 1.00 1.02 1.08 1.12 1.11 1.06 1.09 1.19 1.26 1.31 1.33 1.35 1.41 1.44 1.45 1.45 1.45 1.43 1.43 1.42 1.39 1.43 1.48 1.57 1.44 1.42 1.27 1.27 1.29 1.31 1.36 1.37 1.27 1.21 1.23 1.31 1.35 1.36 1.41 1.41 1.46 1.52 1.48 1.46 1.40 1.41 1.38
0.83 0.81 0.81 0.83 0.85 0.87 0.89 0.91 0.93 0.96 1.00 1.04 1.05 1.02 0.95 0.90 0.89 0.90 0.92 0.93 0.92 0.90 0.90 0.94 0.98 1.02 1.02 1.02 1.01 1.01 1.02 1.07 1.04 0.97 0.93 0.95 0.97 0.98 1.00 1.03 1.10 1.14 1.10 1.04 1.12 1.22 1.25 1.29 1.32 1.35 1.37 1.41 1.43 1.46 1.44 1.41 1.40 1.39 1.40 1.42 1.45 1.49 1.60 1.59 1.44 1.28 1.31 1.37 1.37 1.33 1.27 1.20 1.23 1.32 1.34 1.35 1.38 1.44 1.49 1.48 1.45 1.39 1.36 1.39 1.43
0.84 0.82 0.84 0.85 0.87 0.90 0.93 0.94 0.97 0.98 1.00 1.02 1.04 0.98 0.93 0.91 0.89 0.88 0.88 0.92 0.94 0.94 0.95 0.96 0.99 1.01 1.00 0.99 0.99 1.00 0.99 1.03 1.00 0.96 0.93 0.94 0.97 0.97 0.98 1.04 1.10 1.14 1.09 1.07 1.13 1.21 1.25 1.27 1.28 1.32 1.34 1.36 1.41 1.44 1.41 1.40 1.42 1.42 1.44 1.45 1.46 1.47 1.46 1.48 1.59 1.62 1.56 1.51 1.46 1.36 1.30 1.27 1.26 1.31 1.38 1.37 1.44 1.42 1.48 1.42 1.41 1.39 1.38 1.37 1.42
0.84 0.86 0.87 0.87 0.89 0.93 0.95 0.97 0.97 0.97 1.00 1.03 1.02 0.97 0.94 0.92 0.90 0.91 0.92 0.93 0.91 0.91 0.92 0.92 0.94 0.97 0.98 0.96 0.97 0.98 0.97 0.98 0.97 0.94 0.91 0.93 0.95 0.93 0.94 1.00 1.08 1.14 1.13 1.11 1.15 1.21 1.24 1.26 1.26 1.28 1.33 1.34 1.35 1.35 1.35 1.34 1.35 1.38 1.41 1.45 1.48 1.49 1.47 1.44 1.43 1.46 1.53 1.55 1.49 1.39 1.39 1.45 1.37 1.38 1.44 1.45 1.37 1.37 1.43 1.38 1.39 1.35 1.35 1.35 1.45
0.85 0.87 0.88 0.90 0.93 0.94 0.96 0.98 0.98 0.99 1.00 1.00 1.00 0.97 0.94 0.93 0.92 0.93 0.95 0.93 0.90 0.87 0.86 0.88 0.93 0.96 0.97 0.96 0.95 0.94 0.97 0.98 0.97 0.92 0.90 0.90 0.91 0.92 0.94 0.99 1.01 1.06 1.12 1.14 1.17 1.24 1.27 1.28 1.26 1.29 1.34 1.35 1.35 1.32 1.31 1.30 1.30 1.33 1.38 1.41 1.46 1.50 1.51 1.49 1.45 1.43 1.45 1.47 1.48 1.49 1.52 1.63 1.59 1.52 1.52 1.55 1.47 1.47 1.50 1.47 1.48 1.45 1.45 1.50 1.54
0.84 0.89 0.90 0.93 0.95 0.97 0.98 0.99 0.99 1.00 1.00 1.00 0.98 0.96 0.95 0.94 0.94 0.97 0.98 0.96 0.94 0.88 0.87 0.87 0.87 0.88 0.91 0.94 0.96 0.95 0.99 1.00 0.99 0.95 0.92 0.92 0.94 0.94 0.94 0.95 0.96 1.00 1.08 1.12 1.14 1.23 1.30 1.30 1.26 1.25 1.32 1.35 1.35 1.35 1.34 1.33 1.30 1.30 1.35 1.39 1.42 1.47 1.52 1.59 1.58 1.51 1.48 1.49 1.48 1.47 1.53 1.64 1.63 1.56 1.59 1.63 1.57 1.54 1.57 1.63 1.57 1.57 1.47 1.36 1.41
0.86 0.89 0.92 0.96 0.98 1.00 1.01 1.00 1.01 1.01 1.01 0.97 0.96 0.96 0.95 0.95 0.96 1.00 0.97 0.96 0.91 0.86 0.87 0.89 0.92 0.94 0.95 0.98 1.00 1.03 1.03 1.04 1.03 1.00 0.95 0.96 0.96 0.97 0.98 0.95 0.95 0.95 1.01 1.11 1.13 1.18 1.27 1.33 1.30 1.22 1.27 1.35 1.36 1.35 1.35 1.35 1.32 1.30 1.32 1.37 1.40 1.42 1.47 1.57 1.63 1.59 1.54 1.52 1.54 1.54 1.52 1.51 1.51 1.54 1.60 1.64 1.64 1.63 1.55 1.48 1.42 1.48 1.50 1.41 1.26
0.89 0.92 0.96 0.99 1.02 1.03 1.02 1.02 1.01 1.03 1.02 0.97 0.97 0.96 0.96 0.96 0.95 1.00 0.98 0.95 0.92 0.90 0.91 0.94 0.98 0.99 1.00 1.02 1.04 1.02 0.99 1.03 1.05 1.03 0.99 1.00 1.01 0.98 0.96 0.94 0.91 0.91 0.95 1.05 1.12 1.15 1.21 1.31 1.35 1.28 1.26 1.31 1.36 1.35 1.35 1.35 1.32 1.31 1.32 1.36 1.37 1.38 1.43 1.54 1.60 1.63 1.63 1.59 1.57 1.56 1.55 1.52 1.49 1.49 1.54 1.57 1.59 1.69 1.60 1.37 1.48 1.55 1.52 1.48 1.31
0.92 0.95 0.99 1.03 1.06 1.06 1.05 1.04 1.04 1.04 1.02 0.99 0.99 0.96 0.94 0.94 0.95 0.99 1.01 0.99 0.97 0.99 0.99 0.97 0.99 1.02 1.03 1.02 1.01 1.03 1.05 1.05 1.07 1.05 1.03 1.05 1.05 1.04 0.99 0.93 0.87 0.88 0.93 0.96 1.05 1.11 1.15 1.26 1.35 1.34 1.30 1.30 1.35 1.36 1.37 1.38 1.35 1.34 1.36 1.38 1.38 1.38 1.42 1.49 1.54 1.62 1.65 1.61 1.58 1.58 1.55 1.54 1.53 1.51 1.52 1.53 1.54 1.57 1.59 1.50 1.56 1.60 1.50 1.39 1.34
1.01 1.04 1.06 1.07 1.07 1.07 1.06 1.03 1.04 1.03 1.02 1.00 0.99 0.98 0.99 0.97 0.97 0.98 0.99 0.98 0.97 0.99 1.00 1.01 1.00 1.00 1.02 1.02 1.02 1.03 1.04 1.05 1.07 1.09 1.08 1.08 1.07 1.04 0.99 0.91 0.88 0.88 0.92 0.93 0.95 1.02 1.10 1.18 1.28 1.29 1.27 1.29 1.34 1.36 1.37 1.41 1.37 1.37 1.40 1.39 1.38 1.38 1.49 1.49 1.52 1.57 1.63 1.64 1.58 1.59 1.57 1.59 1.58 1.57 1.55 1.54 1.52 1.53 1.53 1.55 1.53 1.53 1.55 1.51 1.41
1.07 1.10 1.11 1.07 1.06 1.06 1.06 1.04 1.04 1.06 1.05 1.02 1.02 1.01 1.00 0.96 0.97 0.99 0.98 0.99 1.00 1.02 1.04 1.05 1.04 1.03 1.03 1.04 1.05 1.07 1.06 1.01 1.03 1.09 1.09 1.08 1.06 1.01 0.97 0.94 0.92 0.91 0.89 0.90 0.94 0.97 1.02 1.08 1.20 1.25 1.22 1.25 1.32 1.37 1.36 1.38 1.38 1.38 1.42 1.41 1.43 1.49 1.55 1.54 1.60 1.61 1.61 1.64 1.63 1.61 1.61 1.61 1.60 1.59 1.58 1.58 1.53 1.52 1.50 1.49 1.52 1.56 1.55 1.55 1.52
1.15 1.15 1.11 1.06 1.05 1.04 1.04 1.05 1.07 1.08 1.09 1.06 1.02 1.00 1.02 1.00 0.99 1.01 1.00 1.00 1.01 1.03 1.06 1.07 1.06 1.05 1.05 1.05 1.07 1.09 1.14 1.08 1.02 1.08 1.06 1.03 1.01 1.01 0.98 0.97 0.95 0.90 0.86 0.88 0.91 0.94 0.98 1.03 1.06 1.13 1.15 1.19 1.28 1.35 1.38 1.37 1.37 1.37 1.41 1.45 1.48 1.53 1.56 1.63 1.67 1.69 1.66 1.66 1.62 1.62 1.59 1.58 1.57 1.56 1.57 1.58 1.57 1.59 1.58 1.50 1.49 1.52 1.63 1.68 1.62
1.16 1.13 1.09 1.06 1.06 1.04 1.05 1.07 1.08 1.09 1.08 1.08 1.04 1.01 1.03 1.02 1.03 1.03 1.03 1.02 1.01 1.02 1.03 1.04 1.03 1.02 1.02 1.03 1.05 1.08 1.15 1.15 1.09 1.05 1.01 1.01 1.01 1.01 1.00 0.98 0.97 0.94 0.88 0.84 0.87 0.89 0.95 0.98 1.00 1.04 1.10 1.15 1.22 1.32 1.39 1.36 1.35 1.38 1.40 1.43 1.47 1.54 1.59 1.63 1.65 1.64 1.68 1.63 1.64 1.59 1.55 1.56 1.55 1.56 1.57 1.56 1.60 1.62 1.61 1.58 1.52 1.52 1.61 1.74 1.78
1.16 1.13 1.09 1.08 1.08 1.06 1.06 1.10 1.12 1.11 1.12 1.14 1.10 1.03 1.02 1.01 1.02 1.03 1.03 1.00 0.98 1.00 1.02 1.03 1.03 1.00 0.99 1.00 1.03 1.07 1.12 1.13 1.13 1.11 1.06 1.01 1.02 1.02 1.01 1.00 0.99 0.96 0.92 0.86 0.89 0.93 0.93 0.94 0.96 0.99 1.07 1.12 1.20 1.31 1.36 1.34 1.34 1.35 1.38 1.40 1.44 1.50 1.55 1.59 1.59 1.60 1.61 1.65 1.63 1.59 1.58 1.61 1.64 1.63 1.62 1.64 1.66 1.70 1.67 1.63 1.57 1.54 1.60 1.70 1.74
1.08 1.06 1.06 1.08 1.07 1.08 1.10 1.12 1.11 1.08 1.13 1.15 1.10 1.04 1.00 1.00 0.99 1.02 1.02 0.99 0.99 0.99 1.01 1.02 1.01 1.00 0.99 0.99 1.00 1.03 1.07 1.10 1.15 1.15 1.04 1.02 1.02 1.02 1.00 1.00 1.00 0.99 0.93 0.91 0.92 0.93 0.92 0.92 0.96 1.02 1.07 1.12 1.19 1.29 1.35 1.33 1.32 1.33 1.34 1.37 1.37 1.39 1.45 1.50 1.55 1.58 1.57 1.58 1.62 1.64 1.63 1.66 1.69 1.72 1.76 1.76 1.74 1.75 1.68 1.58 1.56 1.59 1.65 1.74 1.81
1.03 1.04 1.08 1.09 1.09 1.11 1.10 1.10 1.05 1.02 1.06 1.10 1.07 1.02 0.99 0.99 0.97 0.98 1.01 0.99 1.00 1.00 1.00 1.01 1.01 1.00 0.98 0.98 0.98 0.99 1.03 1.11 1.12 1.04 1.00 1.00 1.01 1.02 1.00 1.00 1.01 0.99 0.96 0.93 0.89 0.89 0.90 0.94 1.00 1.05 1.07 1.12 1.18 1.26 1.32 1.33 1.33 1.32 1.33 1.34 1.33 1.34 1.37 1.45 1.52 1.54 1.55 1.58 1.61 1.60 1.69 1.64 1.71 1.69 1.76 1.80 1.74 1.66 1.59 1.49 1.47 1.50 1.60 1.69 1.73
1.05 1.05 1.06 1.06 1.08 1.09 1.06 1.01 0.96 0.99 1.08 1.07 1.03 1.00 1.00 0.98 0.95 0.96 0.98 0.99 0.99 0.99 0.99 1.01 1.01 0.99 0.95 0.94 0.95 0.96 0.99 1.05 1.02 0.99 0.98 0.97 0.98 0.99 1.00 1.01 1.02 1.01 0.97 0.95 0.91 0.88 0.91 0.99 1.05 1.06 1.08 1.13 1.19 1.26 1.30 1.37 1.34 1.31 1.34 1.34 1.34 1.35 1.38 1.40 1.46 1.49 1.52 1.54 1.56 1.63 1.71 1.74 1.75 1.75 1.70 1.68 1.62 1.59 1.54 1.46 1.45 1.53 1.65 1.72 1.72
1.02 1.01 1.00 1.03 1.06 1.07 1.04 0.99 0.95 0.95 1.04 1.03 0.95 0.95 0.97 0.97 0.96 0.99 1.01 1.02 1.00 0.98 1.00 1.02 1.00 0.97 0.93 0.93 0.92 0.91 0.94 0.96 0.96 0.95 0.95 0.95 0.94 0.94 0.95 0.98 1.01 1.00 0.96 0.94 0.90 0.90 0.97 1.07 1.11 1.09 1.11 1.12 1.16 1.21 1.24 1.29 1.33 1.34 1.32 1.32 1.32 1.36 1.35 1.36 1.39 1.43 1.48 1.51 1.51 1.58 1.63 1.65 1.62 1.60 1.61 1.53 1.53 1.59 1.54 1.49 1.52 1.60 1.67 1.70 1.66
0.98 0.97 1.03 1.08 1.06 1.05 1.00 1.00 1.01 0.98 0.97 0.96 0.99 1.02 0.99 1.02 1.05 1.08 1.09 1.08 1.04 1.00 1.01 1.03 1.02 1.00 0.96 0.94 0.89 0.87 0.89 0.89 0.93 0.97 0.96 0.95 0.92 0.89 0.90 0.93 0.97 0.98 0.98 0.97 0.93 0.96 1.03 1.05 1.02 1.00 1.00 1.00 1.04 1.09 1.15 1.20 1.27 1.31 1.32 1.30 1.31 1.32 1.32 1.30 1.28 1.31 1.38 1.42 1.42 1.44 1.45 1.45 1.49 1.59 1.57 1.57 1.53 1.49 1.54 1.54 1.62 1.62 1.68 1.71 1.61
0.97 0.97 1.02 1.03 1.02 0.99 0.98 0.97 0.98 0.97 0.95 0.97 1.05 1.02 1.03 1.02 1.03 1.03 1.03 1.08 1.09 1.08 1.06 1.04 1.04 1.03 0.99 0.99 0.97 0.90 0.87 0.91 0.94 0.94 0.94 0.94 0.95 0.94 0.94 0.94 0.95 0.96 0.97 0.97 0.98 0.94 0.98 0.95 0.96 0.96 0.97 0.98 0.98 1.01 1.06 1.17 1.20 1.24 1.26 1.31 1.31 1.30 1.29 1.29 1.29 1.30 1.33 1.36 1.40 1.40 1.39 1.40 1.39 1.45 1.51 1.57 1.55 1.57 1.60 1.60 1.61 1.68 1.68 1.67 1.62
0.94 0.94 0.98 0.99 0.96 0.94 0.93 0.89 0.90 0.97 0.97 0.97 0.99 0.99 0.94 1.00 1.04 1.05 1.08 1.11 1.10 1.09 1.08 1.08 1.08 1.06 1.02 0.98 0.99 0.98 0.95 0.94 0.92 0.91 0.90 0.91 0.93 0.95 0.95 0.95 0.95 0.97 0.99 0.95 1.00 0.97 0.89 0.87 0.90 0.94 0.96 0.96 0.95 0.96 1.01 1.07 1.12 1.19 1.21 1.26 1.27 1.29 1.30 1.28 1.29 1.30 1.29 1.30 1.34 1.37 1.36 1.37 1.39 1.41 1.41 1.46 1.55 1.62 1.62 1.62 1.61 1.64 1.65 1.65 1.58
0.94 0.94 0.97 1.00 0.98 0.92 0.88 0.88 0.89 0.92 0.99 0.98 1.02 0.97 0.92 0.90 0.97 1.04 1.08 1.12 1.14 1.12 1.11 1.10 1.09 1.06 1.03 1.00 0.97 0.96 0.95 0.93 0.92 0.91 0.90 0.90 0.91 0.92 0.93 0.93 0.94 0.97 0.98 0.98 0.95 0.90 0.87 0.85 0.86 0.89 0.92 0.93 0.94 0.95 0.97 0.99 1.05 1.10 1.13 1.15 1.18 1.23 1.25 1.24 1.30 1.31 1.29 1.30 1.29 1.31 1.33 1.36 1.37 1.40 1.43 1.43 1.45 1.48 1.53 1.55 1.57 1.57 1.57 1.59 1.58
0.94 0.95 0.97 0.97 0.96 0.95 0.89 0.89 0.91 0.90 0.91 0.91 0.90 0.90 0.86 0.87 0.89 0.94 1.07 1.15 1.16 1.15 1.14 1.13 1.10 1.06 1.01 0.99 0.98 0.95 0.94 0.93 0.92 0.90 0.88 0.87 0.87 0.87 0.88 0.89 0.89 0.93 0.95 0.93 0.89 0.86 0.86 0.85 0.84 0.87 0.89 0.90 0.94 0.96 0.97 0.98 0.99 1.02 1.06 1.07 1.11 1.17 1.22 1.25 1.30 1.30 1.30 1.31 1.31 1.28 1.30 1.33 1.35 1.35 1.39 1.43 1.43 1.39 1.40 1.41 1.45 1.47 1.46 1.44 1.45
0.95 0.94 0.93 0.93 0.94 0.96 0.95 0.94 0.93 0.95 0.95 0.94 0.92 0.93 0.94 0.94 0.93 0.95 0.96 1.01 1.08 1.12 1.13 1.13 1.11 1.06 1.02 1.00 0.97 0.95 0.93 0.89 0.86 0.83 0.82 0.80 0.81 0.81 0.82 0.84 0.83 0.86 0.87 0.86 0.86 0.84 0.85 0.84 0.85 0.86 0.88 0.90 0.92 0.96 0.97 1.00 1.00 1.00 1.01 1.02 1.05 1.10 1.16 1.21 1.22 1.20 1.24 1.25 1.28 1.28 1.28 1.29 1.31 1.29 1.29 1.31 1.37 1.40 1.40 1.40 1.42 1.40 1.38 1.39 1.38
0.89 0.90 0.86 0.85 0.90 0.93 0.96 0.95 0.95 0.94 0.98 1.01 0.99 0.95 0.97 0.98 1.00 1.00 1.00 1.00 1.04 1.08 1.07 1.08 1.08 1.06 1.01 0.96 0.94 0.92 0.88 0.85 0.81 0.79 0.78 0.79 0.80 0.82 0.82 0.81 0.77 0.77 0.79 0.81 0.83 0.83 0.82 0.82 0.83 0.85 0.87 0.87 0.89 0.91 0.93 0.98 1.01 1.01 1.01 1.01 1.02 1.04 1.06 1.09 1.11 1.15 1.18 1.21 1.22 1.23 1.25 1.28 1.28 1.29 1.27 1.24 1.25 1.26 1.30 1.34 1.35 1.36 1.32 1.30 1.30
0.88 0.89 0.95 0.96 0.92 0.90 0.91 0.91 0.92 0.97 1.01 1.02 1.02 1.02 1.03 1.07 1.11 1.09 1.10 1.12 1.04 1.08 1.10 1.10 1.06 1.00 0.98 0.96 0.95 0.93 0.90 0.86 0.81 0.78 0.77 0.78 0.79 0.80 0.75 0.72 0.71 0.71 0.71 0.73 0.74 0.77 0.79 0.80 0.82 0.83 0.86 0.87 0.89 0.89 0.90 0.92 0.96 0.99 1.00 1.00 1.00 1.01 1.02 1.03 1.05 1.06 1.11 1.15 1.18 1.21 1.23 1.27 1.30 1.29 1.28 1.24 1.22 1.23 1.26 1.30 1.32 1.32 1.30 1.25 1.26
0.89 0.91 0.91 0.92 0.90 0.88 0.89 0.94 1.00 1.02 1.01 1.00 1.01 1.03 1.08 1.09 1.10 1.15 1.13 1.09 1.07 1.06 1.03 1.00 0.99 1.00 0.99 0.97 0.95 0.93 0.90 0.86 0.82 0.79 0.77 0.76 0.76 0.76 0.72 0.70 0.67 0.67 0.66 0.68 0.69 0.71 0.72 0.74 0.78 0.80 0.82 0.84 0.86 0.87 0.88 0.89 0.91 0.94 0.96 0.97 0.97 0.97 0.98 1.01 1.03 1.04 1.04 1.05 1.08 1.13 1.15 1.23 1.28 1.26 1.25 1.22 1.21 1.22 1.22 1.23 1.26 1.27 1.27 1.26 1.26
0.95 0.95 0.95 0.95 0.97 0.97 0.96 0.98 1.00 0.99 1.00 1.02 1.04 1.05 1.06 1.06 1.08 1.07 1.06 1.05 1.03 0.99 0.97 0.97 0.93 0.93 0.89 0.89 0.93 0.90 0.87 0.84 0.81 0.78 0.76 0.74 0.72 0.70 0.69 0.68 0.67 0.64 0.64 0.65 0.67 0.67 0.68 0.70 0.72 0.73 0.76 0.80 0.82 0.85 0.86 0.87 0.88 0.89 0.91 0.93 0.94 0.94 0.95 0.97 1.00 1.02 1.04 1.04 1.04 1.04 1.05 1.07 1.12 1.14 1.19 1.23 1.22 1.19 1.19 1.19 1.19 1.18 1.21 1.22 1.24
1.01 1.01 0.96 0.97 0.99 1.03 1.05 1.03 1.02 1.01 1.02 1.02 1.02 1.02 1.01 1.01 1.02 1.05 1.04 1.01 0.99 0.96 0.96 0.95 0.93 0.89 0.87 0.86 0.85 0.85 0.81 0.75 0.71 0.68 0.68 0.69 0.69 0.68 0.67 0.66 0.65 0.64 0.64 0.64 0.66 0.67 0.67 0.67 0.69 0.71 0.72 0.73 0.75 0.78 0.80 0.82 0.85 0.86 0.88 0.88 0.89 0.91 0.91 0.91 0.93 0.95 0.97 1.00 1.02 1.05 1.04 1.05 1.06 1.08 1.11 1.14 1.14 1.19 1.23 1.22 1.22 1.20 1.17 1.17 1.18
1.02 1.04 1.03 1.02 1.04 1.04 1.05 1.04 1.04 1.04 1.04 1.03 1.02 1.02 1.03 1.03 1.03 1.01 1.00 0.99 0.97 0.95 0.93 0.91 0.87 0.84 0.81 0.79 0.75 0.75 0.71 0.68 0.67 0.66 0.66 0.67 0.66 0.67 0.66 0.64 0.63 0.61 0.61 0.63 0.63 0.64 0.64 0.65 0.66 0.67 0.67 0.68 0.69 0.70 0.72 0.74 0.76 0.79 0.82 0.83 0.84 0.84 0.86 0.88 0.89 0.89 0.91 0.94 0.96 0.99 1.02 1.04 1.06 1.07 1.05 1.03 1.05 1.09 1.18 1.21 1.22 1.23 1.19 1.14 1.16
1.04 1.05 1.05 1.05 1.06 1.05 1.05 1.04 1.05 1.05 1.05 1.05 1.04 1.04 1.02 1.03 1.04 1.04 1.00 0.97 0.94 0.93 0.91 0.87 0.80 0.75 0.73 0.71 0.72 0.72 0.69 0.65 0.64 0.63 0.62 0.61 0.62 0.62 0.62 0.62 0.61 0.61 0.61 0.60 0.60 0.60 0.60 0.60 0.60 0.61 0.62 0.63 0.64 0.65 0.66 0.66 0.67 0.68 0.71 0.74 0.77 0.79 0.82 0.84 0.85 0.86 0.87 0.90 0.93 0.95 0.96 0.99 1.01 1.03 1.03 1.05 1.06 1.03 1.09 1.15 1.17 1.15 1.13 1.12 1.11
1.05 1.05 1.04 1.06 1.05 1.05 1.04 1.03 1.04 1.05 1.04 1.03 1.03 1.02 1.02 1.03 1.02 0.99 0.97 0.93 0.89 0.83 0.78 0.74 0.72 0.71 0.71 0.71 0.69 0.68 0.67 0.66 0.64 0.60 0.56 0.55 0.54 0.54 0.55 0.56 0.58 0.60 0.58 0.57 0.57 0.56 0.57 0.56 0.55 0.55 0.56 0.56 0.57 0.58 0.59 0.60 0.61 0.61 0.62 0.63 0.65 0.69 0.72 0.75 0.78 0.81 0.82 0.84 0.86 0.89 0.93 0.96 0.97 0.97 0.99 1.02 1.04 1.05 1.03 1.04 1.07 1.08 1.07 1.06 1.09
1.06 1.07 1.07 1.07 1.06 1.04 1.02 1.02 1.03 1.02 1.02 1.00 1.01 1.02 1.02 1.00 0.95 0.91 0.87 0.83 0.79 0.75 0.72 0.70 0.69 0.68 0.69 0.69 0.68 0.65 0.64 0.63 0.59 0.54 0.52 0.54 0.53 0.50 0.50 0.50 0.53 0.53 0.54 0.54 0.54 0.55 0.54 0.53 0.52 0.51 0.51 0.51 0.52 0.52 0.52 0.51 0.52 0.53 0.54 0.55 0.56 0.58 0.61 0.65 0.69 0.72 0.75 0.78 0.80 0.82 0.84 0.87 0.92 0.94 0.94 0.95 0.97 0.99 1.00 1.02 1.04 1.04 1.06 1.09 1.11
1.06 1.06 1.05 1.03 1.03 1.03 1.03 1.03 1.01 1.00 0.99 0.98 0.96 0.95 0.94 0.90 0.88 0.86 0.82 0.80 0.76 0.73 0.69 0.67 0.67 0.66 0.65 0.65 0.63 0.59 0.57 0.55 0.52 0.50 0.50 0.51 0.50 0.47 0.48 0.49 0.51 0.51 0.50 0.49 0.51 0.51 0.50 0.49 0.48 0.48 0.47 0.47 0.48 0.49 0.48 0.48 0.48 0.47 0.47 0.48 0.49 0.50 0.52 0.55 0.58 0.62 0.66 0.69 0.72 0.74 0.76 0.78 0.81 0.84 0.87 0.89 0.91 0.91 0.93 0.96 0.98 1.01 1.03 1.03 1.04
1.06 1.04 1.02 1.01 1.02 1.02 1.00 0.98 0.96 0.93 0.90 0.90 0.87 0.86 0.85 0.83 0.80 0.80 0.79 0.76 0.73 0.70 0.66 0.65 0.64 0.63 0.60 0.57 0.55 0.52 0.51 0.50 0.50 0.49 0.46 0.46 0.46 0.48 0.49 0.49 0.48 0.48 0.47 0.45 0.47 0.47 0.46 0.46 0.46 0.46 0.45 0.44 0.45 0.44 0.44 0.45 0.45 0.43 0.43 0.42 0.43 0.43 0.44 0.47 0.49 0.53 0.57 0.60 0.63 0.67 0.69 0.70 0.72 0.75 0.77 0.81 0.83 0.85 0.87 0.90 0.94 0.96 0.98 1.01 1.02
1.00 0.99 0.98 0.97 0.94 0.92 0.91 0.90 0.90 0.88 0.86 0.84 0.82 0.80 0.80 0.79 0.79 0.79 0.77 0.73 0.70 0.66 0.64 0.61 0.60 0.56 0.53 0.52 0.51 0.50 0.49 0.48 0.47 0.46 0.44 0.45 0.46 0.47 0.47 0.46 0.46 0.45 0.43 0.42 0.43 0.45 0.47 0.47 0.47 0.45 0.44 0.43 0.41 0.41 0.40 0.40 0.39 0.38 0.37 0.35 0.35 0.37 0.38 0.41 0.45 0.45 0.47 0.50 0.53 0.57 0.59 0.61 0.63 0.67 0.69 0.72 0.76 0.79 0.81 0.83 0.87 0.89 0.92 0.94 0.96
0.92 0.90 0.87 0.86 0.85 0.85 0.86 0.86 0.87 0.85 0.84 0.83 0.81 0.79 0.79 0.78 0.76 0.74 0.70 0.67 0.64 0.61 0.59 0.55 0.51 0.48 0.47 0.46 0.46 0.46 0.45 0.44 0.43 0.43 0.43 0.44 0.43 0.43 0.43 0.42 0.41 0.39 0.38 0.39 0.40 0.40 0.40 0.41 0.40 0.39 0.37 0.36 0.36 0.35 0.34 0.32 0.32 0.31 0.31 0.29 0.28 0.28 0.29 0.30 0.34 0.37 0.40 0.45 0.46 0.48 0.49 0.52 0.54 0.58 0.61 0.63 0.65 0.68 0.71 0.74 0.78 0.80 0.83 0.85 0.88
0.83 0.82 0.82 0.82 0.82 0.82 0.82 0.82 0.81 0.80 0.80 0.79 0.78 0.77 0.73 0.69 0.66 0.63 0.61 0.59 0.56 0.53 0.49 0.46 0.44 0.43 0.42 0.41 0.41 0.40 0.39 0.39 0.40 0.39 0.40 0.39 0.40 0.41 0.41 0.40 0.39 0.37 0.37 0.37 0.36 0.35 0.34 0.34 0.34 0.33 0.32 0.31 0.31 0.31 0.30 0.28 0.27 0.25 0.25 0.24 0.24 0.24 0.24 0.25 0.27 0.28 0.30 0.34 0.38 0.39 0.40 0.41 0.44 0.47 0.49 0.52 0.53 0.56 0.59 0.63 0.67 0.71 0.75 0.78 0.81
0.80 0.79 0.79 0.79 0.78 0.78 0.77 0.76 0.74 0.73 0.72 0.70 0.66 0.63 0.61 0.59 0.57 0.55 0.53 0.51 0.48 0.46 0.44 0.42 0.41 0.39 0.38 0.37 0.36 0.36 0.36 0.36 0.36 0.35 0.35 0.35 0.35 0.35 0.34 0.33 0.32 0.31 0.30 0.29 0.29 0.29 0.28 0.27 0.27 0.27 0.26 0.25 0.25 0.24 0.24 0.23 0.21 0.19 0.18 0.18 0.17 0.17 0.17 0.18 0.19 0.21 0.24 0.30 0.31 0.30 0.32 0.33 0.35 0.35 0.36 0.37 0.40 0.43 0.46 0.50 0.54 0.58 0.64 0.68 0.71
0.70 0.69 0.67 0.67 0.66 0.66 0.66 0.64 0.63 0.61 0.60 0.58 0.58 0.56 0.54 0.52 0.49 0.47 0.46 0.45 0.43 0.41 0.40 0.37 0.36 0.35 0.35 0.34 0.34 0.34 0.34 0.33 0.32 0.31 0.31 0.31 0.31 0.31 0.30 0.29 0.28 0.28 0.27 0.26 0.25 0.25 0.24 0.24 0.22 0.21 0.21 0.21 0.22 0.22 0.22 0.20 0.19 0.18 0.17 0.16 0.16 0.16 0.16 0.16 0.17 0.18 0.19 0.22 0.26 0.25 0.25 0.26 0.28 0.28 0.27 0.27 0.29 0.29 0.31 0.34 0.38 0.42 0.47 0.51 0.58
0.58 0.57 0.57 0.57 0.56 0.55 0.53 0.52 0.50 0.50 0.49 0.48 0.47 0.47 0.45 0.46 0.44 0.43 0.41 0.39 0.37 0.36 0.35 0.35 0.34 0.34 0.33 0.33 0.32 0.31 0.30 0.30 0.29 0.28 0.28 0.28 0.27 0.26 0.26 0.26 0.26 0.26 0.25 0.25 0.25 0.24 0.24 0.23 0.22 0.21 0.22 0.22 0.22 0.23 0.23 0.21 0.19 0.18 0.17 0.17 0.17 0.17 0.17 0.17 0.18 0.18 0.20 0.21 0.25 0.25 0.24 0.24 0.25 0.25 0.23 0.20 0.22 0.23 0.22 0.24 0.27 0.29 0.31 0.33 0.37
Wind_Speed
22 22 22 22 22 22 22 22 22 22 22 23 23 24 24 24 24 24 25 25 26 26 26 26 25 24 24 24 23 23 23 23 23 22 22 23 23 24 25 25 25 26 27 29 30 31 32 33 34 34 35 37 38 39 40 41 40 40 41 41 40 39 38 38 37 37 37 37 37 36 36 36 34 33 33 32 32 32 32 32 32 32 31 31 31
22 22 22 22 22 22 22 22 22 22 22 23 24 24 24 25 25 25 25 26 26 26 26 26 26 25 24 24 24 23 23 22 22 22 22 23 23 23 24 24 24 24 25 27 28 30 32 33 34 35 36 37 38 39 40 41 41 40 40 41 41 41 40 39 38 38 37 37 37 36 36 36 36 34 34 33 33 32 32 31 32 31 31 30 30
22 22 23 23 23 23 23 23 23 23 23 24 24 24 25 25 25 26 26 27 27 27 27 27 26 25 25 24 24 24 23 22 22 22 22 23 23 23 24 24 24 24 25 26 27 29 31 33 34 35 36 37 38 38 39 41 42 42 41 41 41 42 41 40 39 38 38 37 37 36 36 36 36 35 35 34 33 33 33 32 32 31 31 30 30
22 23 23 23 23 23 23 23 23 23 23 24 25 25 25 26 26 27 27 28 28 28 28 27 27 26 25 25 24 24 23 23 23 23 23 23 23 23 24 24 24 24 25 26 27 28 30 32 34 35 36 36 37 38 39 40 41 42 42 42 41 41 41 41 40 39 38 38 37 36 36 36 36 35 35 34 34 34 33 32 32 32 32 31 31
23 23 23 23 23 23 23 23 23 24 24 25 25 26 26 26 27 27 28 28 28 28 28 28 27 26 25 25 25 24 24 23 23 23 23 23 23 23 24 24 24 24 25 26 28 29 30 31 33 34 35 36 37 37 38 39 41 42 42 42 41 41 41 41 40 39 39 38 38 37 36 36 35 35 35 34 33 33 33 33 32 32 32 32 31
23 23 24 24 23 23 23 23 24 24 24 25 25 26 27 27 28 28 28 28 29 29 28 28 27 27 26 26 25 25 24 24 24 23 23 23 23 24 24 24 24 25 26 27 28 30 30 31 32 33 34 36 37 37 37 38 40 41 41 41 40 40 40 41 40 39 39 39 38 38 37 36 36 35 35 35 34 33 33 33 33 33 32 32 31
24 24 24 24 24 24 23 23 24 24 25 25 26 27 27 28 28 28 29 29 29 29 29 28 28 27 27 26 26 25 24 24 24 23 23 23 23 24 24 23 24 25 26 28 29 30 30 30 30 31 33 34 36 36 36 37 38 39 40 41 40 39 39 40 40 40 39 38 38 38 38 37 36 35 35 35 35 34 34 34 33 33 33 33 32
24 24 24 24 24 24 24 24 24 25 25 26 27 27 28 28 29 29 29 29 29 29 29 28 28 27 27 27 26 25 24 24 23 23 23 23 23 23 23 24 24 25 27 28 29 30 29 28 28 29 30 32 34 35 35 35 35 37 38 39 39 39 38 39 39 40 38 37 38 39 38 38 37 36 35 35 35 35 35 35 34 33 33 33 33
23 23 23 23 24 24 24 24 24 25 26 26 27 28 28 29 29 29 29 30 30 29 29 28 28 27 27 27 26 25 24 23 23 23 23 23 23 23 23 24 24 25 27 28 29 29 28 26 25 25 27 28 30 33 35 35 34 35 36 37 38 38 38 38 38 39 38 38 38 38 38 38 38 36 35 35 35 35 35 35 35 34 33 33 32
23 23 24 24 24 24 24 24 25 25 26 27 27 28 29 29 29 29 30 30 30 29 29 28 28 27 27 26 25 24 23 23 22 22 23 23 23 23 23 23 24 25 27 27 28 28 26 24 24 23 23 24 24 27 30 33 34 35 36 36 37 37 36 37 38 38 38 38 39 39 38 38 38 37 36 36 36 35 35 34 34 34 34 33 32
23 23 24 24 24 24 24 25 25 26 26 27 28 28 28 29 29 29 30 29 29 29 28 28 27 27 26 25 24 24 23 23 22 23 23 23 22 22 23 23 24 25 26 27 27 27 25 23 23 22 20 20 21 22 24 27 30 33 36 37 38 37 36 36 37 39 39 38 38 39 38 38 38 38 36 35 35 35 35 34 34 34 34 34 32
23 23 23 24 24 24 24 25 25 26 26 27 28 28 28 29 29 29 29 28 28 28 27 27 27 26 25 25 24 23 23 22 22 22 22 22 22 21 22 22 23 24 25 26 26 26 25 23 22 20 19 18 19 19 21 24 26 29 33 36 38 39 38 36 36 37 38 38 37 38 39 38 38 38 37 36 35 35 35 35 35 35 34 34 33
23 23 23 24 24 24 25 25 25 26 27 28 28 28 28 28 28 28 28 28 27 27 27 26 26 25 25 24 23 22 22 21 21 22 22 21 21 20 21 21 22 23 24 26 26 25 24 22 21 20 19 18 17 17 20 22 24 26 30 33 36 38 39 39 38 38 38 38 38 38 38 38 38 38 37 36 36 35 35 35 35 35 35 35 35
23 23 23 24 24 24 25 25 26 27 27 28 28 28 28 28 28 28 27 27 27 26 26 26 25 25 24 23 22 22 21 21 21 21 21 20 20 20 20 21 21 22 24 25 25 24 24 22 21 19 18 17 17 18 19 21 23 25 27 30 33 36 37 39 40 40 40 39 39 39 38 38 37 37 37 37 37 37 36 35 35 35 35 36 36
23 23 24 24 24 25 25 26 26 27 27 27 27 27 27 27 27 27 27 27 26 26 26 25 25 24 23 22 21 21 20 20 20 21 20 20 19 19 20 20 21 22 23 24 24 23 23 22 20 19 18 17 17 18 19 20 22 24 25 27 30 34 36 37 39 40 41 41 40 39 39 38 37 37 37 37 37 37 36 35 35 34 34 35 36
24 24 24 24 24 25 25 26 26 27 27 27 27 27 27 27 27 27 27 27 26 25 25 24 24 23 21 21 20 20 20 20 20 20 20 19 19 20 20 21 21 21 22 23 23 22 21 20 20 19 18 17 17 18 18 19 20 21 23 25 27 30 34 36 37 39 40 41 41 41 40 40 39 38 38 37 36 37 36 35 34 34 34 35 35
24 24 24 25 25 25 26 26 26 26 26 26 26 26 27 27 27 27 27 26 26 25 24 23 23 22 21 20 20 20 20 20 19 19 19 19 19 20 20 21 21 21 22 23 22 22 21 20 19 19 17 17 18 18 18 19 19 19 21 23 25 28 31 34 36 38 39 40 41 41 42 41 40 40 39 38 37 36 36 36 35 35 34 34 34
25 25 25 25 25 26 26 27 27 26 26 26 26 26 27 27 27 27 27 26 25 24 23 22 22 21 20 20 19 19 20 19 18 18 18 18 19 20 20 21 21 21 21 22 22 22 21 20 19 19 18 18 17 17 17 18 19 19 19 21 23 25 28 31 33 35 37 39 40 41 41 42 42 41 41 40 39 38 37 37 36 36 35 33 33
25 25 25 25 26 26 27 27 27 26 26 26 26 26 27 27 27 27 26 25 24 23 22 21 21 20 20 19 19 19 19 18 18 18 18 18 19 19 20 21 21 21 21 21 21 21 21 20 19 19 19 19 18 16 16 16 17 18 18 19 20 23 25 28 31 33 35 37 38 39 40 41 42 42 42 42 41 41 40 38 37 36 35 34 34
25 25 26 25 26 26 26 27 27 27 26 26 26 26 27 26 26 26 25 24 23 22 21 21 20 20 20 19 19 18 18 18 17 17 17 17 18 19 19 20 20 20 20 21 21 21 20 20 19 19 19 19 18 17 15 15 15 16 17 17 18 20 23 26 29 31 33 35 37 38 39 40 41 42 42 42 42 42 41 40 39 37 36 34 34
26 26 26 26 26 26 26 26 27 27 26 26 26 27 26 26 25 25 24 24 22 22 21 21 20 20 19 19 18 18 18 18 17 17 17 17 17 18 19 19 19 20 20 20 20 19 20 19 19 19 20 19 18 17 15 14 14 14 15 16 17 18 20 22 26 28 31 34 35 36 37 38 39 41 42 42 43 43 42 41 41 39 37 36 35
27 27 26 26 26 26 26 26 26 26 26 26 27 27 26 25 25 24 24 23 22 21 21 20 20 20 19 19 19 18 17 17 17 17 17 17 17 18 18 19 19 19 19 19 19 18 19 19 18 18 19 19 18 16 15 14 13 13 13 14 15 15 16 18 20 23 27 31 33 34 35 36 37 38 40 41 41 42 42 42 41 40 39 37 35
27 27 26 26 26 26 26 26 26 26 27 27 27 27 26 25 24 23 23 22 21 20 21 20 20 19 19 19 18 18 17 17 17 17 17 17 17 17 18 18 19 19 19 19 18 18 18 18 18 18 18 18 17 15 15 14 12 12 13 13 13 14 13 14 16 19 22 26 30 32 33 34 35 36 38 40 40 41 41 41 40 40 39 38 37
27 27 27 27 27 26 26 26 26 27 27 27 27 26 25 24 23 23 23 22 20 20 20 20 19 19 19 19 18 17 17 17 16 17 17 18 18 17 17 18 18 19 19 19 18 17 17 18 18 17 17 17 16 15 14 13 12 12 12 11 11 12 11 11 13 15 17 21 26 30 31 33 34 34 36 38 39 39 40 40 39 39 39 38 37
27 27 27 27 26 26 26 26 26 27 27 27 26 26 25 24 23 22 22 21 20 20 20 20 19 19 19 18 18 17 17 17 16 17 18 18 18 17 17 18 18 18 18 18 17 17 17 17 17 17 16 15 15 14 13 13 12 12 12 10 9 10 9 8 8 10 12 14 20 26 29 30 32 33 34 36 37 38 39 39 38 38 37 36 36
27 27 27 27 26 26 26 26 26 27 27 27 26 25 24 24 23 22 21 20 19 19 20 19 19 18 18 18 17 17 17 16 16 17 18 18 18 17 17 17 18 18 18 18 17 17 16 16 15 15 14 14 14 13 13 13 12 12 12 11 9 8 7 6 5 6 7 8 11 17 22 24 27 29 30 32 35 36 37 37 37 36 35 35 35
26 26 26 27 26 26 26 26 26 27 27 26 25 25 24 23 23 22 21 20 19 19 19 19 18 18 18 17 17 17 16 16 17 18 18 18 18 17 17 17 17 18 17 17 17 16 16 15 14 13 13 13 13 12 12 12 12 12 11 10 10 8 7 5 4 3 5 5 5 8 14 17 20 25 28 29 31 33 35 35 35 34 34 34 33
25 26 26 27 26 26 27 27 27 27 26 25 25 24 23 23 22 21 20 20 19 19 19 19 18 18 17 17 17 16 16 16 17 18 19 18 18 17 17 16 16 17 17 17 17 16 15 14 13 12 12 12 11 12 12 12 12 12 11 10 9 9 7 5 3 2 4 5 3 4 7 10 12 18 24 27 29 31 32 33 33 32 31 32 32
25 26 26 26 26 26 26 27 26 26 25 25 24 23 22 22 21 21 20 20 20 19 19 18 18 18 17 17 16 16 16 17 18 18 19 19 18 17 16 16 16 16 16 16 16 16 15 14 13 12 11 11 11 11 12 12 12 11 10 10 9 9 8 6 4 3 1 4 4 4 5 5 6 9 15 21 25 28 31 31 31 31 30 30 31
26 26 26 26 26 26 26 26 25 25 25 25 23 22 21 21 21 21 20 20 19 19 18 18 18 18 17 16 16 16 17 17 18 19 19 18 17 16 16 16 16 16 16 15 15 15 14 14 13 12 12 11 10 11 11 12 12 12 10 9 9 9 8 7 5 4 2 1 3 3 3 4 5 6 9 13 17 22 26 28 28 28 28 28 29
26 26 26 26 26 26 26 26 26 25 25 25 24 22 22 21 21 21 20 20 19 18 18 17 17 17 16 16 16 16 17 17 18 18 18 18 17 16 15 15 15 15 15 14 14 13 13 13 13 12 12 11 10 10 10 11 11 12 11 9 8 8 8 7 6 5 3 2 2 2 3 4 5 6 8 11 12 15 19 22 24 25 25 25 26
27 27 27 26 26 27 27 27 26 26 26 25 25 24 23 22 21 21 21 20 19 18 17 17 16 16 16 16 16 16 17 17 18 18 17 17 16 16 15 15 15 15 14 13 13 13 13 12 12 12 12 11 10 10 10 10 10 11 11 10 8 7 7 7 6 5 5 3 3 2 2 4 5 6 9 11 12 12 14 16 19 19 20 20 21
27 27 27 27 27 27 27 27 26 27 26 26 25 25 24 23 22 22 21 21 20 19 18 17 16 16 16 16 16 17 17 17 17 17 17 16 16 15 14 14 14 14 13 12 12 12 12 12 12 12 11 11 10 10 9 9 9 9 10 10 9 8 7 6 6 5 5 4 3 3 2 1 3 5 7 9 11 11 11 13 15 16 15 15 16
26 27 27 27 26 26 26 26 26 26 26 26 25 25 25 24 23 23 22 21 20 19 18 17 17 16 16 16 16 16 16 17 16 16 16 15 15 14 14 13 12 12 12 11 11 11 11 11 11 11 11 10 10 10 10 9 9 8 9 9 9 8 7 6 5 5 5 5 4 3 2 0 1 3 5 7 8 9 10 11 12 13 14 14 14
26 26 26 26 26 26 26 26 26 26 26 25 25 25 26 25 24 24 22 20 19 18 17 17 16 16 15 15 15 15 16 16 16 15 15 14 14 14 13 12 11 11 11 10 10 10 10 11 11 10 10 10 10 10 9 9 9 8 8 8 8 8 8 7 6 5 4 4 5 4 3 1 1 2 4 5 7 8 10 11 11 12 13 14 14
25 25 25 25 25 25 25 25 25 25 25 25 25 26 25 24 23 22 20 19 18 17 17 16 16 15 14 14 15 15 15 15 15 14 14 14 14 13 12 11 11 11 11 10 10 10 10 10 10 10 10 10 10 10 9 9 9 9 9 8 8 8 8 8 7 6 4 4 4 4 4 3 2 2 3 4 5 6 9 11 12 13 14 14 15
25 25 24 24 24 24 24 23 23 23 23 23 23 23 21 20 19 18 18 18 18 17 17 16 16 16 15 15 15 15 15 15 15 14 14 14 14 13 12 11 11 11 10 10 10 10 10 10 10 10 10 10 10 10 10 10 10 10 9 9 8 8 8 8 7 7 6 4 4 3 3 3 3 3 4 4 5 5 6 8 10 11 13 14 15
24 24 24 24 23 23 22 22 22 21 21 20 19 19 17 16 16 15 15 15 15 16 15 15 15 15 15 16 16 15 15 15 15 14 14 14 13 12 12 11 11 11 11 11 10 10 10 9 9 9 9 10 10 10 10 10 10 10 10 9 9 9 8 8 7 7 6 5 5 4 4 3 3 4 4 5 5 6 7 8 8 9 11 12 13
23 23 23 23 23 22 21 21 20 19 18 18 17 16 15 14 14 14 14 14 14 14 13 13 14 15 15 16 16 15 15 15 14 14 14 13 13 12 12 12 12 12 11 11 11 11 10 10 10 9 9 9 10 10 10 10 10 11 11 10 10 10 9 9 8 8 7 7 6 5 5 4 4 4 4 5 5 6 7 7 8 9 10 11 11
22 22 22 22 21 20 20 19 18 17 17 16 16 15 14 13 13 13 13 12 12 12 12 13 14 14 15 15 15 15 14 14 14 13 13 13 13 13 13 12 12 12 12 12 12 11 11 11 10 10 10 10 10 10 11 11 11 11 11 11 11 10 10 10 9 9 9 8 8 7 7 6 6 5 5 5 6 6 7 8 8 9 10 10 11
21 20 20 19 19 18 18 18 17 16 15 15 14 13 12 12 12 12 12 11 11 11 12 13 14 14 14 14 15 14 14 13 13 14 14 13 13 13 13 13 13 13 13 13 12 12 12 12 12 12 12 12 12 12 12 12 11 11 11 11 11 11 11 10 10 10 10 9 9 9 8 8 8 7 7 7 7 7 7 8 9 9 10 11 11
19 19 18 18 17 17 17 16 15 14 14 14 13 12 12 12 12 12 12 13 13 13 13 13 14 14 14 14 14 14 14 14 14 14 14 14 14 14 14 13 13 13 13 13 13 13 13 13 13 13 13 13 13 13 13 13 13 12 12 12 12 11 11 11 11 11 10 10 9 9 9 9 9 9 9 9 9 9 9 9 10 10 10 11 11
17 17 16 16 16 15 15 14 14 14 13 13 13 12 12 12 12 12 13 13 14 14 14 14 14 14 14 14 14 14 14 14 14 14 14 13 13 13 14 14 14 14 13 13 13 14 14 14 14 14 14 14 14 14 14 14 14 14 14 13 13 13 13 12 12 12 12 11 11 11 10 10 10 10 10 10 10 10 10 11 11 11 11 11 11
14 14 14 14 14 14 13 13 13 13 13 13 13 12 12 12 12 13 13 14 14 15 15 14 14 14 14 14 14 14 14 14 14 14 13 13 13 14 14 14 14 14 13 13 14 14 14 15 15 15 15 15 15 15 15 15 15 15 15 15 15 15 15 15 14 14 14 13 13 12 12 12 11 11 11 11 11 11 11 12 12 12 12 12 12
13 13 13 13 13 13 13 13 13 13 13 13 13 13 13 13 13 14 15 15 15 15 15 15 15 15 15 14 14 14 14 13 14 14 14 14 14 14 14 14 14 14 14 14 14 14 14 15 15 16 16 16 16 16 16 16 16 16 16 16 16 16 16 16 16 16 16 15 15 15 14 14 14 13 13 13 13 13 12 13 13 13 13 13 14
13 13 13 13 12 12 12 12 12 12 12 13 13 14 14 14 14 15 15 15 15 15 15 15 15 15 15 14 14 14 13 13 14 14 14 14 14 14 14 14 14 14 14 14 14 14 14 15 15 15 16 16 16 16 17 17 17 17 17 17 17 17 17 17 18 17 17 17 17 16 16 16 16 16 16 15 15 15 15 15 15 15 15 15 15
13 13 13 13 13 13 13 13 13 13 14 14 14 14 14 14 14 14 15 15 15 15 15 15 15 14 14 14 14 14 14 14 14 14 14 14 14 14 14 14 14 14 14 14 14 14 14 15 15 15 15 15 16 16 16 16 16 17 17 17 17 18 18 18 18 18 17 18 18 18 17 17 17 17 17 17 17 17 17 17 17 17 17 17 17
14 14 14 14 14 14 14 14 14 15 15 15 15 15 15 15 15 15 15 15 15 15 15 14 14 14 14 14 14 14 14 13 13 13 13 13 13 14 14 14 14 14 14 15 14 14 14 14 14 14 14 14 15 15 15 15 15 15 16 16 17 17 18 18 18 18 18 18 18 18 18 18 18 18 18 18 19 19 19 19 18 18 19 19 19
15 15 15 15 16 15 15 15 15 15 15 15 15 15 15 15 15 15 15 15 15 15 14 14 14 14 14 14 14 13 13 13 13 13 13 14 14 14 14 14 14 14 14 14 14 14 14 14 14 14 14 14 14 14 14 14 14 15 15 15 15 16 17 17 17 17 17 18 18 18 18 18 18 18 19 19 19 19 19 20 20 20 20 20 20
16 17 17 17 16 16 16 15 15 15 15 15 15 15 15 15 15 15 15 15 15 15 15 14 14 14 14 14 14 14 14 14 14 14 14 14 15 15 15 15 15 15 14 14 14 14 14 14 14 14 14 14 14 15 14 14 15 15 15 15 15 16 16 16 16 16 16 16 16 16 17 17 18 18 18 19 19 20 20 20 20 21 21 21 21
16 16 16 16 16 16 16 15 15 15 15 15 15 15 15 15 15 15 15 15 15 15 15 14 14 14 14 14 14 14 14 14 14 14 14 14 15 15 15 14 14 14 14 14 14 15 15 15 15 15 15 15 15 15 15 15 16 16 16 16 16 16 16 16 16 16 16 17 17 16 16 16 17 17 17 18 18 19 19 20 20 21 21 21 21
Wind_Direction
311 311 312 312 312 312 312 313 313 313 313 314 315 317 318 318 319 319 320 319 319 318 318 318 318 316 314 311 308 307 305 303 301 300 299 298 297 298 299 297 294 291 287 282 278 274 272 269 266 263 262 258 255 253 250 248 246 245 244 243 243 244 245 246 247 248 248 247 247 247 247 246 244 243 243 244 244 242 241 239 238 237 237 238 239
310 310 311 311 311 311 312 312 313 312 312 313 314 315 316 317 318 318 318 319 318 317 317 317 317 315 313 310 308 306 306 304 302 301 300 300 300 301 302 300 298 297 294 289 284 279 275 271 268 265 263 260 257 254 250 247 246 245 243 243 244 245 245 245 246 248 247 246 245 245 245 244 243 242 242 242 242 242 240 239 238 237 237 237 239
309 310 310 310 310 310 311 312 312 311 312 312 313 314 315 315 316 317 317 318 317 316 315 315 315 314 312 310 307 305 304 304 303 302 302 302 302 302 302 301 300 301 301 297 292 286 280 275 270 267 264 261 258 255 252 248 247 245 244 243 244 245 244 244 245 246 246 245 244 243 244 243 242 242 241 241 241 241 240 239 238 236 236 236 238
307 308 309 309 309 310 310 311 311 311 311 312 312 313 314 315 315 316 317 317 317 315 314 313 313 313 312 310 306 304 303 302 302 302 302 303 303 303 302 301 300 301 302 301 298 294 287 279 273 269 265 262 258 256 253 249 246 245 244 244 244 244 244 243 243 244 244 244 242 242 242 242 242 241 240 240 240 240 239 238 237 236 236 236 238
306 307 308 308 308 309 310 310 310 310 311 311 312 313 314 314 314 315 317 317 317 315 313 312 311 311 310 309 306 303 302 301 300 301 302 303 304 303 302 301 300 301 302 303 302 300 294 285 277 271 267 263 259 256 253 250 247 246 244 243 243 243 242 241 242 243 243 243 241 241 241 241 241 239 238 238 238 238 238 237 237 236 236 236 238
305 306 307 307 308 309 309 309 309 310 311 311 312 312 313 313 314 315 316 317 316 315 313 312 311 309 309 307 305 303 301 300 300 299 301 303 304 304 303 302 301 302 303 304 304 304 300 291 281 273 267 264 260 257 254 250 248 246 244 241 241 242 242 240 240 241 242 241 241 240 240 240 240 238 237 237 237 237 236 236 237 237 236 236 237
305 305 306 306 308 308 308 308 309 310 311 311 312 312 312 313 313 315 316 316 315 314 313 312 311 309 307 306 304 302 301 300 299 298 299 302 303 304 304 303 303 304 305 305 306 306 304 297 287 277 269 264 260 257 254 251 247 245 243 241 240 241 241 240 239 240 241 241 240 239 239 239 239 238 237 237 237 236 235 235 236 236 236 236 236
304 305 305 306 307 308 308 309 309 310 311 312 312 312 312 313 314 314 315 314 314 313 313 312 311 309 307 305 304 302 300 299 298 298 299 301 303 304 305 304 304 306 307 307 308 309 307 301 293 284 274 267 262 257 254 250 247 245 243 241 239 240 240 240 239 239 239 239 239 238 238 238 238 237 236 236 236 236 235 235 235 236 236 236 236
304 304 305 306 307 308 308 309 310 310 311 312 312 312 313 314 314 314 314 313 312 312 312 311 310 309 307 305 303 301 300 299 299 298 299 301 302 304 305 305 305 307 309 309 310 312 310 305 301 293 281 272 265 257 251 249 247 245 242 241 240 240 240 239 239 238 238 238 238 238 237 237 237 236 235 234 235 235 235 234 235 235 235 236 235
303 304 304 306 307 308 308 308 309 310 311 311 312 313 314 314 315 314 313 312 312 312 312 311 310 309 308 305 303 301 298 298 299 298 299 301 302 303 305 306 306 307 310 311 313 314 311 305 305 304 290 278 269 259 251 248 246 244 242 241 240 240 240 239 238 238 237 237 237 236 235 236 235 235 235 234 234 234 233 233 233 234 234 235 235
302 303 304 305 306 307 307 308 309 310 311 311 312 313 314 315 315 315 314 313 312 312 312 311 310 309 308 306 304 301 298 298 298 298 299 300 301 303 305 307 307 308 312 314 315 316 313 304 304 308 300 285 275 264 255 251 248 245 243 241 240 241 242 241 238 237 236 235 235 234 234 235 235 235 235 234 233 233 232 232 233 233 233 233 233
302 303 304 305 305 306 307 307 308 309 310 312 313 314 314 315 315 315 315 314 314 313 312 311 310 309 308 306 304 301 299 298 298 299 299 299 300 303 306 308 309 310 314 317 317 318 317 308 302 305 303 294 281 269 261 257 253 249 245 242 241 241 242 241 239 236 234 233 234 234 234 234 235 234 234 233 232 232 232 233 233 233 232 232 232
301 302 303 304 305 305 306 306 307 309 310 312 313 314 314 315 316 316 316 315 314 313 313 312 311 310 308 306 303 301 300 300 300 300 300 300 300 304 307 309 310 311 315 318 319 320 320 314 304 300 300 297 287 276 268 263 259 255 249 244 242 241 241 240 239 236 234 234 235 235 234 234 234 234 233 233 232 231 231 232 232 232 232 231 232
299 301 303 303 304 304 305 306 307 308 310 311 312 313 314 315 316 316 317 316 315 314 314 313 312 310 309 306 304 302 302 303 303 302 301 300 300 304 308 309 310 312 315 318 320 323 323 319 311 301 296 294 289 282 276 269 263 259 254 248 244 242 240 239 238 237 236 236 236 236 234 234 234 234 234 233 233 231 230 231 232 232 232 232 232
298 300 301 302 303 304 305 305 307 308 310 311 311 312 313 315 316 317 317 316 315 314 314 313 313 312 309 307 305 304 304 305 305 304 302 299 300 304 307 308 310 312 315 318 321 324 323 321 317 308 297 291 290 287 282 276 268 262 258 254 248 243 240 239 237 237 236 236 236 236 234 233 234 234 233 233 232 231 230 231 231 232 232 232 231
295 298 300 301 302 303 304 305 306 308 309 310 311 311 312 314 315 316 316 315 314 314 314 314 313 312 310 307 306 305 306 306 307 306 302 300 301 305 306 307 309 311 314 317 322 326 324 322 322 317 306 296 293 291 287 282 275 267 262 259 253 245 241 239 237 236 236 235 235 235 234 233 234 233 232 232 232 231 229 229 231 232 232 231 230
294 296 299 300 301 303 304 305 306 307 308 309 310 311 312 313 314 315 315 314 314 313 313 314 313 312 309 308 307 306 308 308 308 307 304 301 302 305 307 308 308 310 313 316 320 325 326 323 322 322 316 305 298 294 290 287 282 276 269 264 258 251 244 241 239 237 236 235 235 234 234 233 233 232 231 231 231 230 228 228 229 230 231 231 230
294 295 297 299 301 302 303 304 305 306 307 308 308 309 310 312 313 314 314 313 313 312 313 313 312 311 309 309 308 308 310 310 309 309 307 303 303 306 308 309 309 310 313 315 317 322 325 324 322 322 321 314 304 296 293 291 288 282 275 269 264 257 249 243 240 237 235 235 234 234 233 233 232 232 231 231 230 230 229 228 228 229 230 231 230
293 294 296 298 300 301 303 303 304 304 305 305 306 308 309 310 312 313 313 312 312 312 312 311 311 310 310 310 310 310 311 312 311 311 310 306 306 308 309 310 310 311 314 315 315 318 322 324 325 322 321 320 314 303 295 293 291 286 281 275 269 263 255 247 241 238 236 234 233 233 232 232 231 231 231 230 230 230 230 229 228 229 231 232 231
292 293 295 297 298 301 302 303 304 303 303 303 304 306 308 309 310 312 312 312 311 311 311 310 309 309 309 310 311 311 311 312 312 313 313 311 310 311 311 311 311 312 314 316 316 316 318 321 324 324 323 322 319 312 302 296 294 289 285 283 277 269 261 251 243 240 238 234 232 232 232 231 231 230 230 230 230 230 230 230 229 230 231 232 231
290 292 294 295 297 299 301 302 303 302 301 301 303 305 307 308 309 310 311 310 310 310 309 308 307 307 308 308 309 310 310 312 313 314 315 314 314 315 315 314 313 313 315 317 316 316 317 319 321 323 325 325 323 318 310 302 297 293 289 287 285 280 268 253 243 240 239 234 231 230 231 231 230 229 229 229 229 229 229 230 229 229 230 231 232
288 290 292 294 295 298 300 302 302 302 301 300 301 304 306 307 307 308 308 309 308 308 308 307 306 306 307 308 308 308 308 309 311 313 315 315 316 318 318 318 318 316 317 318 318 317 318 319 319 320 325 329 328 325 321 314 305 299 293 289 291 292 278 256 244 242 239 234 230 229 229 229 229 228 227 228 228 229 229 229 229 229 230 230 231
286 288 290 292 293 296 299 300 301 301 301 300 300 302 304 304 304 305 306 306 306 306 306 306 305 306 306 307 308 308 307 308 309 311 313 314 315 317 318 320 321 320 319 320 320 319 319 321 321 321 323 329 332 331 330 327 321 313 303 294 295 300 288 263 250 247 242 235 230 228 228 227 228 228 227 226 227 227 227 228 228 228 229 230 231
285 287 288 290 291 294 296 298 299 300 300 299 299 300 301 302 302 302 303 303 303 303 304 305 305 306 306 307 307 307 307 307 308 310 312 312 312 314 317 319 321 321 321 321 321 320 321 322 323 323 323 327 332 335 335 335 333 328 320 307 300 303 299 277 257 251 248 241 233 228 227 226 227 227 227 225 225 226 225 226 227 227 228 230 231
284 285 286 288 289 292 294 295 297 299 300 299 298 298 299 299 299 299 300 300 299 300 302 304 304 305 306 306 306 307 308 308 308 311 313 313 311 313 316 318 321 321 322 323 323 322 321 321 322 323 324 326 332 337 341 342 341 339 336 328 314 307 305 294 268 250 246 246 238 229 226 226 226 226 226 224 223 223 224 224 225 226 227 229 230
283 284 285 286 288 290 292 294 296 297 298 297 296 296 296 297 297 297 297 297 296 297 299 302 303 304 305 306 306 307 307 307 308 311 314 314 314 313 314 316 320 322 322 323 324 324 323 323 323 325 328 331 334 339 344 346 348 347 345 344 338 324 311 305 293 252 234 243 242 229 224 225 225 224 223 221 220 221 221 221 222 224 225 227 228
283 283 284 285 287 288 290 292 294 296 296 295 295 295 295 294 294 294 293 293 293 294 297 299 301 303 305 305 305 306 306 307 308 311 313 314 314 315 314 315 319 322 323 324 326 327 328 326 325 325 329 332 334 339 344 349 353 355 354 352 350 345 335 324 319 267 220 227 242 226 219 223 226 224 222 220 219 219 219 218 220 222 223 224 224
283 283 284 285 286 287 289 290 292 294 294 293 294 295 295 293 292 292 291 291 290 292 294 297 299 301 303 304 304 304 305 307 309 311 312 313 313 314 315 315 317 320 322 324 326 328 330 330 327 326 329 333 335 337 342 349 354 358 2 2 359 359 360 356 349 308 220 212 200 184 196 212 225 226 221 218 217 216 216 217 218 221 222 222 223
283 284 284 285 286 287 288 290 290 291 292 292 293 294 295 293 291 290 290 290 290 290 292 294 297 299 301 302 303 304 305 306 308 310 310 311 311 312 313 314 315 316 319 322 324 326 329 332 333 331 332 335 336 335 338 345 352 356 1 4 4 7 10 11 14 16 246 203 182 163 170 185 202 212 214 214 214 214 214 215 217 219 220 221 222
284 284 284 284 285 286 288 289 289 289 291 291 291 292 293 292 290 288 287 288 289 290 291 293 295 297 298 299 301 303 304 305 306 308 309 309 310 311 312 312 312 312 314 318 320 322 326 332 335 334 333 335 338 336 335 340 348 353 356 358 1 5 8 10 17 28 36 147 173 176 178 174 169 173 186 197 204 207 209 212 214 215 216 218 221
283 283 283 283 283 284 285 287 288 288 289 289 289 289 290 291 290 287 285 284 285 287 288 290 293 296 297 297 299 301 304 305 306 306 307 308 308 309 311 312 312 313 313 315 317 320 324 329 333 334 334 335 337 338 337 339 342 346 350 353 357 3 8 11 16 22 32 75 140 167 185 185 179 167 163 167 176 190 200 205 210 214 216 219 221
282 282 282 282 283 283 284 284 285 286 287 286 286 286 286 286 285 284 283 282 282 282 283 286 290 293 295 297 299 301 304 306 307 306 307 307 306 306 309 312 315 315 314 314 316 320 323 326 330 333 334 335 336 337 338 339 340 341 344 347 351 357 3 6 9 16 27 51 85 99 143 183 187 178 169 166 164 167 178 189 198 205 211 215 219
282 282 282 282 283 283 284 284 284 285 286 285 284 283 283 281 279 278 278 279 278 277 278 280 284 288 291 295 298 300 303 306 307 308 308 307 306 305 307 311 316 319 318 315 316 320 322 324 327 330 332 334 335 335 335 337 338 339 340 341 343 348 356 0 3 8 15 26 49 65 77 164 181 174 170 171 170 168 168 174 181 189 196 202 207
282 282 282 283 283 284 284 285 285 286 286 285 283 282 281 279 276 273 272 273 272 273 275 276 278 282 288 293 297 300 302 305 307 308 309 308 307 307 307 308 314 320 321 320 319 320 322 324 325 327 329 331 333 334 335 335 335 336 337 338 339 341 347 354 358 357 354 356 8 23 26 327 198 184 180 181 183 183 180 178 180 184 189 193 196
282 282 282 282 283 284 285 285 286 286 286 285 284 283 281 279 276 270 267 265 266 267 270 272 275 280 285 292 297 299 302 304 305 306 308 310 311 310 308 307 310 316 320 322 322 322 322 324 325 325 326 328 329 332 333 334 334 335 335 337 340 342 344 347 349 345 337 335 341 345 344 330 259 217 201 197 201 204 203 201 198 197 197 198 199
283 283 282 283 284 285 285 286 286 286 285 285 285 285 283 280 275 268 263 262 263 265 267 270 274 277 282 290 295 297 299 302 304 305 308 311 312 310 307 307 311 314 318 320 322 321 321 323 324 325 325 325 326 328 329 330 330 331 332 334 338 342 344 345 344 340 332 325 322 321 320 316 293 254 219 202 203 209 212 212 212 212 212 212 213
283 283 283 284 285 285 286 286 286 286 286 286 286 286 284 279 274 268 265 264 265 266 268 270 272 274 280 288 292 293 295 298 300 302 306 309 309 307 305 307 310 313 315 318 319 319 319 320 321 323 325 325 324 324 326 326 326 327 326 328 331 335 338 340 342 342 339 333 323 313 305 297 284 269 250 232 223 217 215 214 215 216 218 219 221
283 283 284 284 285 285 285 286 286 286 286 285 285 285 283 279 274 269 266 264 265 266 267 269 271 274 279 285 288 290 293 295 296 298 302 303 304 303 303 305 307 309 311 313 314 314 315 315 316 318 320 321 321 321 321 322 323 324 324 323 324 326 327 329 331 335 338 337 331 322 309 291 278 268 254 240 235 232 225 221 220 219 220 222 223
283 283 283 283 283 283 284 284 284 284 283 282 282 282 281 276 271 266 264 263 264 266 267 269 272 276 280 283 285 287 290 293 295 298 299 300 301 303 303 304 304 305 305 306 307 308 308 309 310 312 313 315 317 317 318 318 318 319 320 320 320 321 322 321 320 321 323 324 323 321 317 306 290 277 263 251 249 245 235 228 228 230 230 230 230
282 283 283 282 282 282 282 282 282 281 280 279 279 278 276 271 266 264 264 264 264 267 271 273 276 280 282 283 284 286 288 290 293 296 297 298 299 301 303 303 302 301 299 299 300 301 301 302 303 305 307 309 311 312 314 315 314 313 314 314 315 315 316 316 316 314 313 312 309 306 306 304 298 289 279 270 266 260 252 246 245 242 239 238 238
281 282 282 283 282 281 279 278 278 277 276 276 275 274 271 267 264 265 267 268 269 271 275 278 280 282 282 283 285 287 288 289 291 293 295 295 295 297 299 299 297 296 295 295 294 294 294 295 297 298 300 302 304 306 307 308 309 309 309 309 310 309 309 309 310 309 308 306 304 300 296 294 292 289 285 281 276 269 261 257 256 255 253 251 248
280 280 281 281 280 278 276 275 274 273 273 273 273 271 268 267 267 269 271 272 273 275 278 279 281 282 283 285 287 288 288 288 289 291 291 290 291 293 294 293 293 294 295 294 292 291 290 291 293 294 295 297 298 300 301 303 303 304 304 304 304 305 304 304 305 305 304 303 301 299 295 291 288 285 283 281 278 273 267 263 262 263 264 262 258
279 279 279 278 276 275 274 273 271 271 271 271 271 270 268 268 268 270 271 272 275 277 278 278 279 280 281 283 286 287 286 286 287 288 288 287 288 290 290 290 292 294 294 293 291 289 288 289 290 291 292 293 294 295 295 297 298 298 299 299 300 300 299 299 299 300 300 299 298 298 296 292 288 284 282 280 277 275 273 271 267 266 265 263 261
278 277 276 276 275 273 271 270 270 270 270 270 269 269 268 268 268 270 272 273 275 277 278 277 278 279 280 282 284 285 286 285 286 286 286 287 289 289 289 290 291 291 291 290 290 289 288 288 289 289 289 290 292 292 292 293 293 293 294 295 295 296 295 295 294 294 293 293 292 292 292 291 290 287 284 281 278 277 276 274 271 268 266 264 263
277 277 276 276 275 273 272 272 272 270 269 268 268 268 268 269 270 272 274 274 275 276 277 277 278 280 281 282 284 284 285 284 284 284 285 287 288 288 288 289 290 290 290 289 289 289 289 288 287 288 288 288 289 290 290 290 291 291 291 291 291 291 292 292 291 290 289 288 287 286 286 286 286 286 285 283 281 278 276 274 272 271 270 268 266
278 278 277 276 275 274 274 274 273 271 270 270 271 270 270 271 273 274 275 275 276 276 277 277 278 279 280 281 281 283 283 284 284 284 284 285 286 286 286 287 289 290 290 290 290 290 290 290 289 288 288 288 288 288 288 288 288 289 290 290 290 290 290 290 289 287 286 285 285 284 284 283 282 281 282 282 280 279 278 276 274 272 271 269 268
279 278 277 276 275 274 273 273 273 273 273 273 273 272 272 273 274 275 275 275 275 276 277 278 278 278 278 279 280 281 282 283 283 283 283 283 284 284 285 286 288 289 290 290 291 292 292 292 292 291 290 290 290 289 289 289 288 288 289 290 290 291 291 290 289 287 285 284 283 282 282 281 280 279 279 278 278 278 278 277 276 274 272 271 269
279 278 277 277 276 274 274 274 274 274 274 274 273 272 272 273 274 274 274 275 275 276 277 277 277 277 277 278 279 280 281 281 281 281 282 282 283 283 285 286 287 287 288 289 291 292 292 292 292 292 292 292 292 292 292 292 292 291 291 292 292 293 293 292 290 288 286 285 283 282 281 280 280 279 279 278 277 277 276 276 276 275 275 273 272
278 278 278 278 277 276 275 275 274 274 273 273 272 272 273 273 274 274 274 275 276 276 277 276 275 276 276 277 277 278 278 279 280 280 280 281 282 283 285 287 287 286 287 288 289 290 291 292 292 292 292 292 292 292 292 293 293 294 295 295 295 296 295 294 293 291 289 286 284 283 282 280 279 279 278 278 277 277 276 275 275 275 275 274 273
279 279 278 278 277 276 276 275 274 274 273 273 273 273 273 274 274 274 275 275 275 275 275 275 275 275 275 275 275 276 277 278 279 280 280 281 282 283 284 286 286 286 288 289 290 291 291 292 292 292 292 291 291 291 291 291 292 293 294 295 296 296 296 295 294 293 291 289 286 285 284 282 281 280 279 277 277 276 276 276 275 275 274 274 273
280 280 279 278 278 277 277 276 275 275 275 274 274 274 274 274 274 274 274 274 273 273 273 273 273 274 274 274 275 276 277 277 278 279 279 280 281 281 282 283 284 285 287 288 290 291 291 292 292 292 292 291 291 290 290 290 291 290 291 294 295 295 295 294 293 292 292 290 287 286 285 284 283 282 281 280 279 277 276 276 275 274 273 273 272